Skagway, AK

6:44 AM AKST on January 17, 2017 (GMT -0900)
Skagway

Weather History for PAGY - June, 2012

Change the Weather History Date:

Tuesday, June 5, 2012

  Actual Average Record
Temperature  
Mean Temperature 59 °F -  
Max Temperature 68 °F 59 °F 78 °F (1971)
Min Temperature 50 °F 44 °F 35 °F (1968)
Degree Days  
Heating Degree Days 6    
Growing Degree Days 9 (Base 50)    
Moisture  
Dew Point 42 °F    
Average Humidity 56    
Maximum Humidity 93    
Minimum Humidity 33    
Precipitation  
Precipitation 0.05 in - - ()
Sea Level Pressure  
Sea Level Pressure 29.87 in    
Wind  
Wind Speed 7 mph (NNE)    
Max Wind Speed 21 mph    
Max Gust Speed 33 mph    
Visibility 10 miles    
Events Rain    
Averages and records for this station are not official NWS values.
T = Trace of Precipitation, MM = Missing Value Source: NWS Daily Summary

Daily Weather History Graph

Daily Weather History Graph

Search for Another Location

Airport or City:

Trip Planner

Search our weather history database for the weather conditions in past years. The results will help you decide how hot, cold, wet, or windy it might be!

Date:

Astronomy

Jun. 05, 2012 Rise Set
Actual Time 3:49 AM AKDT 10:10 PM AKDT
Civil Twilight 2:26 AM AKDT 11:35 PM AKDT
Nautical Twilight Sun does not rise Sun does not rise
Astronomical Twilight Sun does not rise Sun does not rise
Moon 11:22 PM AKDT (6/5) 5:20 AM AKDT (6/5)
Length of Visible Light 21h 08m
Length of Day
18h 20m
Full, 97% of the Moon is Illuminated
Jun 5
Full
Jun 11
Last Quarter
Jun 19
New
Jun 26
First Quarter
Jul 3
Full

Hourly Weather History & Observations

Time (AKDT) Temp. Dew Point Humidity Pressure Visibility Wind Dir Wind Speed Gust Speed Precip Events Conditions
12:53 AM 54.0 °F 41.0 °F 62% 29.91 in 10.0 mi Variable 4.6 mph - N/A   Clear
1:53 AM 55.0 °F 39.9 °F 57% 29.91 in 10.0 mi Variable 5.8 mph - N/A   Overcast
2:53 AM 53.1 °F 41.0 °F 64% 29.91 in 10.0 mi Calm Calm - N/A   Clear
3:53 AM 50.0 °F 41.0 °F 71% 29.91 in 10.0 mi Variable 3.5 mph - N/A   Clear
4:53 AM 52.0 °F 41.0 °F 66% 29.90 in 10.0 mi Calm Calm - N/A   Clear
5:53 AM 54.0 °F 39.9 °F 59% 29.89 in 10.0 mi Calm Calm - N/A   Clear
6:53 AM 60.1 °F 39.9 °F 47% 29.88 in 10.0 mi NNE 11.5 mph 24.2 mph N/A   Clear
7:53 AM 63.0 °F 39.9 °F 43% 29.87 in 10.0 mi NE 19.6 mph 23.0 mph N/A   Clear
8:53 AM 63.0 °F 39.9 °F 43% 29.86 in 10.0 mi NNE 12.7 mph 21.9 mph N/A   Partly Cloudy
9:53 AM 64.9 °F 39.0 °F 39% 29.85 in 10.0 mi NNE 11.5 mph 20.7 mph N/A   Clear
10:53 AM 66.0 °F 39.9 °F 38% 29.84 in 10.0 mi NNE 10.4 mph - N/A   Scattered Clouds
11:53 AM 68.0 °F 37.9 °F 33% 29.83 in 10.0 mi Variable 5.8 mph - N/A   Mostly Cloudy
12:53 PM 66.9 °F 37.9 °F 34% 29.81 in 10.0 mi North 8.1 mph - N/A   Overcast
1:53 PM 66.9 °F 39.0 °F 36% 29.80 in 10.0 mi NNE 5.8 mph - N/A   Overcast
2:53 PM 66.9 °F 39.9 °F 37% 29.80 in 10.0 mi Variable 4.6 mph - N/A   Overcast
3:53 PM 66.9 °F 39.9 °F 37% 29.80 in 10.0 mi Variable 6.9 mph - N/A   Overcast
4:53 PM 66.0 °F 41.0 °F 40% 29.80 in 10.0 mi NNE 4.6 mph - N/A   Overcast
5:53 PM 64.0 °F 42.1 °F 45% 29.81 in 10.0 mi NNE 9.2 mph - N/A   Overcast
6:53 PM 55.9 °F 45.0 °F 67% 29.84 in 10.0 mi SSW 18.4 mph 26.5 mph 0.00 in Rain Light Rain
7:06 PM 55.4 °F 44.6 °F 67% 29.85 in 10.0 mi SSW 20.7 mph 33.4 mph 0.00 in Rain Light Rain
7:53 PM 54.0 °F 46.0 °F 75% 29.88 in 10.0 mi SSW 17.3 mph - 0.00 in Rain Light Rain
8:53 PM 53.1 °F 46.9 °F 80% 29.91 in 8.0 mi SSW 15.0 mph - 0.01 in Rain Light Rain
9:53 PM 52.0 °F 46.9 °F 83% 29.94 in 9.0 mi SSW 11.5 mph - 0.02 in Rain Light Rain
10:53 PM 51.1 °F 46.9 °F 86% 29.96 in 10.0 mi NW 5.8 mph - 0.02 in Rain Light Rain
11:53 PM 50.0 °F 48.0 °F 93% 29.98 in 10.0 mi North 3.5 mph - 0.00 in Rain Light Rain